Wind_Speed
17 17 17 17 16 13 11 11 10 9 8 8 8 9 10 11 12 12 14 15 17 18 20 21 23 24 25 26 27 28 29 30 30 30 30 30 30 30 30 31 31 31
18 18 18 17 14 11 11 10 10 10 10 9 9 10 10 11 11 13 14 16 17 19 21 22 23 25 26 27 28 29 30 30 31 31 30 30 30 31 31 31 31 30
18 18 17 15 13 12 11 11 11 11 10 10 9 10 10 11 12 13 15 16 18 19 21 23 24 25 27 28 29 30 31 31 31 31 31 30 31 31 31 31 30 29
17 16 15 14 13 12 12 11 11 11 10 10 9 9 10 11 12 14 15 17 18 20 22 23 25 27 28 29 30 31 31 31 31 31 31 31 31 31 31 30 29 29
16 16 15 14 13 13 12 12 11 11 10 10 9 9 10 11 13 14 16 17 19 21 23 25 26 28 29 30 31 31 31 31 31 31 31 31 31 31 30 30 29 30
16 16 15 14 14 13 13 12 12 11 10 10 9 9 11 13 14 15 17 19 20 22 24 26 27 29 30 31 32 32 32 32 32 31 31 31 30 30 30 30 30 30
16 16 16 15 15 14 13 13 12 11 10 9 9 10 12 14 15 17 18 20 22 23 25 27 28 29 31 32 32 32 32 32 32 31 31 31 30 30 30 30 30 31
17 17 17 16 16 15 14 13 12 11 10 10 11 12 14 16 17 18 19 21 23 24 26 28 29 30 31 32 33 33 33 33 32 31 31 30 30 30 30 30 31 33
18 18 17 17 16 15 15 14 13 12 12 12 13 14 16 17 18 19 20 22 24 26 28 29 31 31 32 32 33 33 33 33 32 31 31 30 30 30 30 30 32 34
19 18 18 17 16 16 15 15 14 14 14 14 15 16 18 18 19 20 22 23 25 27 29 31 32 32 33 33 33 33 33 33 32 31 30 30 30 30 30 31 33 36
20 19 18 17 17 17 17 16 16 16 17 16 17 18 19 19 20 22 23 25 26 28 30 32 33 33 33 33 33 33 33 32 31 30 30 30 30 30 31 33 35 37
21 20 19 19 19 19 19 18 19 19 18 17 18 20 20 20 22 23 25 26 28 29 31 33 34 34 34 34 33 33 33 32 31 30 30 30 30 31 32 34 36 38
22 20 20 20 21 21 21 22 22 21 19 18 20 21 21 22 23 25 26 28 29 30 32 34 34 34 34 33 33 33 32 31 30 30 30 30 30 31 33 35 37 38
23 22 22 22 22 23 23 23 23 21 20 20 22 22 23 24 25 26 28 29 30 31 33 34 34 34 33 33 33 32 32 31 30 30 30 30 31 32 34 35 37 39
25 24 24 24 23 24 24 23 22 22 22 22 23 24 24 25 27 28 29 30 30 31 33 34 34 33 33 33 32 32 31 30 30 30 30 30 31 32 34 36 38 39
27 26 26 25 24 24 24 23 23 23 23 24 25 25 26 27 28 29 30 30 31 32 33 34 33 33 33 33 32 32 31 30 29 29 30 30 31 33 34 36 38 40
28 27 27 26 25 25 25 24 24 24 25 26 26 26 27 28 29 30 30 31 31 32 33 34 33 33 33 33 32 32 30 29 29 29 29 30 31 33 35 36 38 39
28 28 28 27 26 26 26 26 26 26 27 27 27 28 29 30 31 31 31 31 31 32 33 33 33 33 33 33 32 31 30 29 29 29 29 30 31 33 35 36 38 39
28 29 28 28 28 27 28 28 28 28 28 29 29 30 31 32 32 32 31 31 31 32 33 33 33 33 33 32 31 30 29 28 28 28 29 30 31 33 34 36 37 38
28 29 30 30 30 30 30 30 30 30 30 31 31 32 32 33 32 31 31 31 31 32 33 33 33 32 32 31 30 29 28 28 28 28 29 29 31 32 34 35 36 37
29 30 31 31 32 32 32 32 32 32 32 32 33 33 33 33 32 31 31 31 31 32 32 32 32 31 31 30 29 28 28 28 27 28 28 29 30 32 33 35 35 36
31 32 32 33 33 33 33 34 34 33 32 32 32 33 32 32 31 31 30 30 31 31 32 32 31 30 30 30 29 28 28 27 27 27 28 29 30 31 33 34 35 35
33 33 33 34 35 34 33 35 36 34 32 32 32 32 32 32 31 30 29 30 30 31 31 31 30 29 29 29 28 28 27 27 27 27 27 28 30 31 32 33 34 34
34 35 36 36 36 34 34 35 36 35 33 33 33 32 32 31 31 29 29 29 30 30 31 31 29 28 28 28 28 27 27 27 27 27 27 28 29 31 31 32 33 34
36 36 37 38 36 34 34 35 35 35 33 33 33 32 31 31 30 29 29 29 30 30 31 31 29 28 28 28 28 27 27 27 27 27 27 28 29 30 31 31 32 32
37 37 38 38 36 34 33 35 35 34 33 32 32 31 30 30 29 29 29 29 30 30 31 31 29 27 28 28 28 28 28 27 27 27 27 28 29 30 30 31 32 31
Wind_Direction
235 234 233 232 228 222 216 213 217 223 231 239 249 259 265 270 277 286 295 302 307 311 314 315 315 316 315 316 316 316 317 317 317 317 317 316 316 316 315 313 312 312
235 231 232 232 226 214 210 213 221 229 235 243 251 257 264 273 283 294 301 307 312 316 317 317 317 318 318 319 319 319 319 318 318 317 316 316 316 315 314 313 312 313
231 229 228 224 215 210 212 218 224 231 238 244 250 258 268 281 292 301 307 312 316 319 319 319 320 321 321 321 322 321 321 320 319 317 316 315 315 314 313 312 313 315
227 223 219 215 213 216 220 224 229 234 239 244 251 263 277 290 300 305 311 316 319 320 321 322 323 323 323 324 324 323 322 320 318 316 315 314 313 312 312 313 315 317
222 217 215 216 220 224 227 229 231 233 238 246 257 272 287 297 302 307 314 319 321 322 324 325 325 325 325 325 324 323 322 320 317 315 313 313 312 312 313 315 316 318
219 218 221 226 229 231 231 229 229 232 240 251 265 281 292 298 302 309 316 320 323 324 326 327 326 326 325 325 324 323 321 319 317 314 313 312 312 313 314 316 317 318
221 225 229 234 236 234 230 228 230 238 248 260 274 285 291 296 303 311 316 320 323 325 327 327 327 326 325 324 324 322 321 319 316 314 312 312 313 314 315 315 316 318
226 231 235 238 238 234 229 230 236 246 256 266 275 283 290 298 305 310 314 318 322 324 326 326 326 326 325 324 323 322 320 318 316 313 312 312 313 314 315 315 317 319
230 235 238 239 236 232 231 236 244 251 258 265 274 284 292 299 304 309 313 317 320 322 324 325 325 325 324 323 322 321 319 317 314 312 311 312 313 314 314 315 318 320
235 238 241 240 235 233 236 243 249 254 258 265 276 286 293 299 304 309 313 317 319 320 322 323 324 324 324 323 321 320 318 316 313 311 311 312 313 313 315 317 319 321
236 240 241 239 236 236 241 247 252 255 259 268 279 287 293 299 305 310 314 316 316 318 320 322 323 323 323 322 320 318 317 314 312 310 311 312 313 315 316 318 320 321
237 240 241 239 237 239 244 249 252 255 261 271 280 287 293 300 306 310 313 313 314 316 318 321 322 322 322 321 319 317 315 313 311 311 312 313 315 316 318 320 321 323
237 239 240 238 238 241 246 249 251 256 264 273 281 287 294 300 304 308 310 311 312 313 316 319 320 320 320 319 317 315 314 312 311 312 313 315 316 317 319 321 323 324
237 238 239 239 240 244 247 249 254 260 267 273 279 287 293 298 302 305 307 308 309 311 314 318 319 319 319 317 316 314 313 313 313 313 314 315 317 318 320 323 324 325
235 237 239 240 242 245 248 252 257 262 266 271 278 285 290 295 298 301 304 306 307 309 312 316 317 317 317 317 315 314 313 313 313 314 315 316 318 319 322 324 325 326
236 238 239 241 243 246 249 254 258 262 267 273 279 284 289 292 295 298 302 304 304 306 310 314 316 317 317 316 315 314 313 313 313 314 315 317 319 321 324 325 326 328
239 239 240 242 244 247 251 255 261 266 271 275 280 284 288 291 294 297 300 301 301 304 309 314 316 316 316 316 315 314 313 313 313 314 316 318 320 323 324 325 327 330
241 241 243 245 247 250 255 260 265 269 273 277 281 285 288 291 293 296 298 298 299 303 309 314 315 316 316 315 314 314 313 313 313 314 316 319 321 323 324 326 329 331
243 244 245 248 251 254 257 262 267 271 275 278 281 285 289 291 292 293 295 295 297 303 310 314 315 315 315 315 314 313 312 312 313 314 317 319 322 323 325 327 330 331
248 247 248 251 254 257 260 264 268 271 275 278 281 285 288 289 290 290 291 293 297 304 310 313 314 314 315 315 314 313 312 312 313 315 317 320 322 323 325 328 330 332
253 251 251 253 256 259 262 266 268 270 273 277 281 285 286 286 287 287 288 292 297 305 310 312 313 314 315 315 313 312 311 311 313 315 318 320 322 323 325 328 331 332
256 255 255 256 258 261 265 267 269 270 274 278 281 284 284 284 283 284 287 292 298 305 310 312 313 314 315 315 313 311 311 311 313 316 318 320 321 322 325 329 331 332
257 257 257 258 260 262 265 267 271 275 278 280 281 282 282 280 280 282 286 292 298 305 310 311 312 314 315 315 312 310 310 311 313 316 318 319 319 321 325 329 330 331
255 255 255 258 261 262 263 267 271 275 278 278 279 279 278 276 277 281 286 292 297 304 308 310 310 313 315 315 312 310 310 311 313 315 317 317 317 320 326 329 329 331
256 255 255 257 258 260 264 267 269 272 274 275 276 276 274 273 276 281 285 290 296 302 306 308 308 311 314 315 313 310 310 311 312 314 315 315 316 321 326 328 328 331
258 258 258 259 260 262 265 266 267 269 271 271 272 271 271 272 276 280 284 288 293 299 304 306 306 309 312 313 313 311 309 309 310 311 313 313 315 321 326 326 327 331
Height
5797 5797 5798 5799 5799 5800 5801 5802 5803 5804 5804 5804 5804 5805 5805 5806 5806 5807 5806 5806 5805 5803 5802 5801 5800 5799 5798 5796 5794 5793 5791 5789 5787 5785 5783 5782 5780 5778 5776 5774 5772 5770
5795 5796 5797 5798 5798 5799 5800 5801 5802 5802 5802 5802 5803 5803 5804 5804 5805 5805 5804 5803 5802 5801 5800 5798 5797 5796 5794 5793 5791 5789 5788 5786 5784 5782 5780 5778 5777 5775 5773 5771 5769 5767
5793 5794 5795 5796 5797 5798 5799 5800 5800 5800 5800 5800 5801 5802 5802 5803 5803 5802 5802 5801 5800 5798 5797 5796 5794 5793 5791 5790 5788 5786 5784 5782 5781 5779 5777 5775 5774 5772 5770 5768 5766 5764
5791 5793 5794 5795 5796 5797 5798 5798 5798 5798 5798 5799 5799 5800 5801 5801 5800 5800 5799 5798 5797 5796 5795 5793 5791 5790 5788 5786 5785 5783 5781 5779 5778 5776 5774 5772 5770 5769 5767 5765 5763 5760
5790 5791 5793 5794 5795 5796 5796 5796 5795 5796 5796 5797 5798 5799 5799 5798 5798 5798 5797 5796 5794 5793 5792 5790 5788 5787 5785 5783 5781 5780 5778 5777 5775 5773 5771 5769 5767 5766 5764 5761 5759 5757
5789 5790 5791 5792 5793 5794 5794 5793 5794 5794 5795 5796 5796 5796 5796 5796 5796 5795 5794 5793 5792 5790 5789 5787 5785 5784 5782 5780 5779 5777 5775 5774 5772 5770 5768 5766 5764 5762 5760 5758 5756 5753
5788 5789 5790 5790 5791 5792 5792 5792 5792 5793 5793 5794 5794 5794 5794 5794 5793 5792 5791 5790 5789 5787 5786 5784 5782 5781 5779 5778 5776 5774 5773 5771 5769 5767 5765 5763 5761 5759 5757 5755 5752 5750
5786 5787 5788 5789 5789 5790 5790 5790 5790 5791 5791 5792 5792 5792 5792 5791 5790 5789 5788 5787 5786 5784 5783 5781 5780 5778 5777 5775 5773 5771 5770 5768 5766 5764 5762 5760 5758 5756 5754 5751 5749 5747
5784 5785 5786 5787 5788 5788 5788 5788 5788 5789 5789 5790 5790 5790 5789 5788 5788 5787 5785 5784 5783 5782 5780 5779 5777 5776 5774 5773 5771 5768 5767 5765 5763 5761 5759 5757 5755 5753 5751 5748 5746 5743
5782 5784 5784 5785 5785 5786 5786 5786 5787 5787 5788 5788 5788 5787 5787 5786 5785 5784 5783 5781 5780 5779 5778 5776 5775 5773 5771 5770 5768 5765 5764 5762 5760 5758 5756 5754 5752 5750 5747 5745 5743 5740
5781 5782 5782 5783 5783 5784 5784 5784 5785 5785 5786 5786 5785 5785 5784 5783 5782 5781 5780 5779 5778 5776 5775 5774 5772 5770 5769 5767 5765 5763 5761 5759 5757 5755 5753 5751 5748 5746 5744 5742 5739 5737
5779 5780 5780 5781 5781 5782 5782 5782 5782 5783 5783 5783 5783 5782 5781 5780 5779 5778 5777 5776 5775 5774 5772 5771 5769 5768 5766 5764 5762 5760 5758 5756 5754 5752 5750 5748 5745 5743 5741 5738 5736 5734
5777 5778 5778 5779 5779 5780 5780 5780 5780 5781 5781 5780 5780 5779 5778 5778 5777 5776 5775 5774 5773 5771 5770 5769 5767 5765 5763 5761 5759 5757 5755 5753 5751 5749 5746 5744 5742 5740 5738 5735 5733 5730
5775 5776 5776 5777 5777 5777 5778 5778 5778 5778 5778 5778 5777 5776 5776 5775 5774 5773 5772 5771 5770 5769 5768 5766 5764 5763 5760 5758 5756 5754 5752 5750 5747 5745 5743 5741 5739 5737 5735 5732 5729 5726
5773 5773 5774 5774 5775 5775 5775 5775 5775 5776 5776 5775 5774 5773 5773 5772 5771 5771 5770 5769 5768 5766 5765 5764 5762 5760 5757 5755 5753 5750 5748 5746 5744 5742 5740 5738 5736 5734 5732 5729 5726 5723
5770 5771 5771 5772 5772 5772 5772 5773 5773 5773 5773 5772 5771 5771 5770 5769 5769 5768 5767 5766 5765 5764 5763 5761 5759 5757 5754 5752 5750 5747 5745 5743 5741 5739 5737 5735 5733 5731 5729 5726 5723 5720
5768 5768 5769 5769 5769 5769 5770 5770 5770 5770 5769 5769 5768 5768 5767 5766 5766 5765 5764 5763 5762 5761 5760 5758 5756 5753 5751 5749 5746 5744 5742 5740 5739 5737 5735 5733 5730 5728 5726 5723 5720 5716
5764 5765 5766 5766 5766 5766 5766 5766 5766 5766 5766 5765 5765 5764 5764 5763 5763 5762 5761 5760 5759 5758 5757 5755 5752 5750 5748 5746 5743 5741 5740 5738 5736 5734 5732 5730 5728 5725 5723 5720 5717 5713
5761 5762 5762 5763 5763 5763 5763 5763 5763 5763 5763 5762 5761 5761 5760 5760 5759 5759 5758 5757 5756 5755 5753 5751 5749 5747 5744 5742 5740 5738 5737 5735 5733 5731 5729 5727 5725 5723 5720 5717 5714 5711
5757 5758 5759 5759 5759 5759 5759 5759 5759 5759 5759 5758 5758 5757 5757 5756 5756 5755 5755 5754 5753 5751 5750 5748 5745 5743 5741 5739 5737 5736 5734 5732 5730 5728 5726 5724 5722 5720 5717 5714 5711 5708
5754 5754 5755 5755 5755 5755 5755 5755 5755 5755 5755 5755 5754 5754 5753 5753 5753 5752 5751 5750 5749 5748 5746 5744 5742 5740 5738 5736 5734 5733 5731 5729 5728 5726 5724 5721 5719 5717 5714 5711 5708 5705
5749 5750 5751 5751 5751 5751 5751 5751 5751 5752 5751 5751 5750 5750 5750 5749 5749 5748 5748 5747 5746 5745 5743 5741 5739 5737 5735 5733 5732 5730 5728 5727 5725 5723 5721 5719 5716 5714 5712 5709 5706 5703
5745 5745 5746 5746 5747 5747 5747 5747 5747 5748 5747 5747 5747 5746 5746 5746 5745 5745 5744 5744 5743 5741 5740 5738 5736 5734 5732 5731 5729 5727 5726 5724 5722 5720 5718 5716 5714 5712 5709 5706 5703 5700
5740 5740 5740 5741 5742 5742 5743 5743 5743 5743 5744 5743 5743 5743 5743 5742 5742 5741 5741 5740 5739 5738 5736 5735 5733 5731 5730 5728 5726 5725 5723 5721 5719 5717 5715 5713 5711 5709 5706 5703 5701 5698
5735 5736 5735 5736 5737 5738 5738 5739 5739 5739 5740 5739 5739 5739 5739 5738 5738 5738 5737 5736 5736 5734 5733 5732 5730 5728 5727 5725 5723 5722 5720 5718 5716 5714 5713 5711 5709 5706 5704 5701 5698 5695
5733 5733 5733 5732 5732 5734 5735 5735 5735 5735 5736 5736 5735 5735 5735 5735 5734 5734 5733 5733 5732 5731 5730 5728 5727 5725 5724 5722 5721 5719 5717 5715 5713 5712 5710 5708 5706 5704 5701 5699 5696 5693